Flag for U.S.A. Weather past 2 weeks in Tacoma, Washington, U.S.A.

Now
55 °F

Overcast.


Feels Like: 53 °F
Forecast: 52 / 66 °F
Wind: 7 mph from South

Location: Tacoma Narrows Airport

Current Time: May 23, 2015 at 10:34:21 PM

Latest Report: May 23, 2015 at 9:53 PM


Visibility: 10 mi

Pressure: 30.18 "Hg

Humidity: 80%

Dew point: 49 °F

Location of TacomaLocation

Historic Weather in Tacoma — Graph

°F

Tacoma temperature yesterday

Maximum temperature yesterday: 60 °F (at 2:53 PM)
Minimum temperature yesterday: 53 °F (at 12:53 AM)
Average temperature yesterday: 55 °F

Past Weeks' High & Low Weather Summary

 TemperatureHumidityPressure
High78 °F (May 21, 3:53 PM)100% (May 20, 7:53 AM)30.19 "Hg (May 20, 7:53 AM)
Low48 °F (May 9, 4:53 AM)24% (May 9, 3:53 PM)29.81 "Hg (May 21, 6:53 PM)
Average56 °F76%29.99 "Hg
* Reported May 8 8:53 PM — May 23 8:53 PM, Tacoma, Weather by CustomWeather, © 2015

Note: Actual official high and low records may vary slightly from our data, if they occured in-between our weather recording intervals... More about our weather records

Advertising

Tacoma weather history for previous 24 hours

 ConditionsComfort  
Time TempWeatherWind HumidityBarometerVisibility
8:53 PM
Sat, May 23
57 °FOvercast.5 mph78%30.16 "Hg10 mi
7:53 PM58 °FOvercast.5 mph75%30.17 "Hg10 mi
6:53 PM58 °FOvercast.3 mph78%30.17 "Hg10 mi
5:53 PM59 °FOvercast.3 mph75%30.17 "Hg10 mi
4:53 PM60 °FOvercast.5 mph72%30.17 "Hg10 mi
3:53 PM59 °FOvercast.5 mph72%30.19 "Hg10 mi
2:53 PM60 °FMostly cloudy.5 mph69%30.19 "Hg10 mi
1:53 PM58 °FMostly cloudy.5 mph72%30.19 "Hg10 mi
12:53 PM56 °FMostly cloudy.5 mph77%30.19 "Hg10 mi
11:56 AM54 °FOvercast.5 mph83%30.18 "Hg10 mi
10:53 AM55 °FOvercast.5 mph80%30.17 "Hg10 mi
9:53 AM54 °FCloudy.5 mph83%30.17 "Hg10 mi
8:53 AM52 °FLight rain. Mostly cloudy.3 mph93%30.16 "Hg10 mi
7:56 AM53 °FMostly cloudy.6 mph86%30.15 "Hg10 mi
6:53 AM52 °FOvercast.7 mph89%30.15 "Hg10 mi
5:53 AM52 °FOvercast.6 mph89%30.14 "Hg10 mi
4:53 AM52 °FOvercast.6 mph89%30.12 "Hg10 mi
3:53 AM53 °FOvercast.6 mph86%30.12 "Hg10 mi
2:53 AM53 °FOvercast.6 mph83%30.11 "Hg10 mi
1:53 AM53 °FMostly cloudy.7 mph83%30.10 "Hg10 mi
12:53 AM53 °FOvercast.6 mph83%30.11 "Hg10 mi
11:53 PM
Fri, May 22
53 °FOvercast.7 mph86%30.09 "Hg10 mi
10:53 PM54 °FOvercast.9 mph83%30.08 "Hg10 mi
Weather by CustomWeather, © 2015

See weather overviewHow to use our weather pages